QPF
0.00 0.00 0.00 0.00 0.00 0.00 0.00 0.00 0.00 0.00 0.00 0.00 0.00 0.00 0.00 0.00 0.00 0.00 0.00 0.00 0.00 0.00 0.00 0.00 0.00 0.01 0.00 0.00 0.00 0.00 0.00 0.00 0.00 0.00 0.00 0.00 0.04 0.04 0.02 0.01 0.00 0.00 0.00 0.00 0.00 0.00 0.01 0.01 0.01
0.00 0.00 0.00 0.00 0.00 0.00 0.00 0.00 0.00 0.00 0.00 0.00 0.00 0.00 0.00 0.00 0.00 0.00 0.00 0.00 0.00 0.00 0.00 0.00 0.00 0.00 0.00 0.00 0.00 0.00 0.00 0.01 0.01 0.00 0.05 0.19 0.17 0.13 0.15 0.19 0.07 0.00 0.00 0.01 0.00 0.01 0.01 0.01 0.00
0.00 0.00 0.00 0.00 0.00 0.00 0.00 0.00 0.00 0.00 0.00 0.00 0.00 0.00 0.00 0.00 0.00 0.00 0.00 0.00 0.00 0.00 0.00 0.00 0.00 0.00 0.00 0.00 0.00 0.00 0.00 0.00 0.00 0.02 0.10 0.08 0.08 0.10 0.09 0.09 0.04 0.03 0.03 0.04 0.02 0.02 0.01 0.00 0.00
0.00 0.00 0.00 0.00 0.00 0.00 0.00 0.00 0.00 0.00 0.00 0.00 0.00 0.00 0.00 0.00 0.00 0.00 0.00 0.00 0.00 0.00 0.00 0.00 0.00 0.00 0.00 0.00 0.00 0.00 0.00 0.00 0.00 0.00 0.01 0.02 0.04 0.08 0.13 0.16 0.18 0.12 0.07 0.05 0.03 0.01 0.01 0.00 0.00
0.00 0.00 0.00 0.00 0.00 0.00 0.00 0.00 0.00 0.00 0.00 0.00 0.00 0.00 0.00 0.00 0.00 0.00 0.00 0.00 0.00 0.00 0.00 0.00 0.00 0.00 0.01 0.01 0.04 0.06 0.08 0.03 0.02 0.00 0.00 0.02 0.03 0.02 0.06 0.10 0.16 0.11 0.05 0.04 0.03 0.01 0.00 0.00 0.00
0.00 0.00 0.00 0.00 0.00 0.00 0.00 0.00 0.00 0.00 0.00 0.00 0.00 0.00 0.00 0.00 0.00 0.00 0.00 0.00 0.00 0.00 0.00 0.00 0.00 0.00 0.00 0.03 0.08 0.07 0.13 0.12 0.11 0.03 0.01 0.01 0.01 0.02 0.02 0.02 0.06 0.08 0.06 0.03 0.02 0.00 0.00 0.00 0.00
0.00 0.00 0.00 0.00 0.00 0.00 0.00 0.00 0.00 0.00 0.00 0.00 0.00 0.00 0.00 0.00 0.00 0.00 0.00 0.00 0.00 0.00 0.00 0.00 0.00 0.00 0.00 0.02 0.05 0.06 0.10 0.17 0.13 0.06 0.01 0.01 0.01 0.00 0.00 0.00 0.05 0.11 0.08 0.10 0.03 0.00 0.00 0.00 0.00
0.00 0.00 0.00 0.00 0.00 0.00 0.00 0.00 0.00 0.00 0.00 0.00 0.00 0.00 0.00 0.00 0.00 0.00 0.00 0.00 0.00 0.00 0.00 0.00 0.00 0.00 0.00 0.00 0.00 0.01 0.06 0.11 0.08 0.02 0.01 0.01 0.03 0.00 0.00 0.00 0.03 0.21 0.22 0.11 0.04 0.00 0.00 0.00 0.00
0.00 0.00 0.00 0.00 0.00 0.00 0.00 0.00 0.00 0.00 0.00 0.00 0.00 0.00 0.00 0.00 0.00 0.00 0.00 0.00 0.00 0.00 0.00 0.00 0.00 0.00 0.00 0.00 0.00 0.01 0.03 0.05 0.03 0.00 0.00 0.00 0.00 0.00 0.00 0.00 0.06 0.19 0.29 0.14 0.01 0.00 0.00 0.00 0.00
0.00 0.00 0.00 0.00 0.00 0.00 0.00 0.00 0.00 0.00 0.00 0.00 0.00 0.00 0.00 0.00 0.00 0.00 0.00 0.00 0.00 0.00 0.00 0.00 0.00 0.00 0.00 0.00 0.00 0.00 0.00 0.00 0.00 0.00 0.00 0.00 0.00 0.00 0.00 0.00 0.05 0.14 0.18 0.12 0.00 0.00 0.00 0.00 0.00
0.00 0.00 0.00 0.00 0.00 0.00 0.00 0.00 0.00 0.00 0.00 0.00 0.00 0.00 0.00 0.00 0.00 0.00 0.00 0.00 0.00 0.00 0.00 0.00 0.00 0.00 0.00 0.00 0.00 0.00 0.00 0.00 0.00 0.01 0.00 0.00 0.00 0.01 0.00 0.00 0.04 0.11 0.17 0.10 0.01 0.00 0.00 0.00 0.00
0.00 0.00 0.00 0.00 0.00 0.00 0.00 0.00 0.00 0.00 0.00 0.00 0.00 0.00 0.00 0.00 0.00 0.00 0.00 0.00 0.00 0.00 0.00 0.00 0.00 0.00 0.00 0.00 0.00 0.00 0.00 0.00 0.00 0.00 0.00 0.00 0.00 0.02 0.03 0.01 0.02 0.06 0.03 0.01 0.00 0.00 0.00 0.00 0.00
0.00 0.00 0.00 0.00 0.00 0.00 0.00 0.00 0.00 0.00 0.00 0.00 0.00 0.00 0.00 0.00 0.00 0.00 0.00 0.00 0.00 0.00 0.00 0.00 0.00 0.00 0.00 0.00 0.00 0.00 0.00 0.00 0.00 0.00 0.00 0.00 0.02 0.02 0.06 0.03 0.02 0.03 0.01 0.00 0.00 0.00 0.00 0.00 0.00
0.00 0.00 0.00 0.00 0.00 0.00 0.00 0.00 0.00 0.00 0.00 0.00 0.00 0.00 0.00 0.00 0.00 0.00 0.00 0.00 0.00 0.00 0.00 0.00 0.00 0.00 0.00 0.00 0.00 0.00 0.00 0.00 0.00 0.00 0.01 0.01 0.04 0.08 0.11 0.05 0.03 0.03 0.01 0.00 0.00 0.00 0.00 0.00 0.00
0.00 0.00 0.00 0.00 0.00 0.00 0.00 0.00 0.00 0.00 0.00 0.00 0.00 0.00 0.00 0.00 0.00 0.00 0.00 0.00 0.00 0.00 0.00 0.00 0.00 0.00 0.00 0.00 0.00 0.00 0.00 0.00 0.00 0.01 0.01 0.02 0.04 0.03 0.03 0.02 0.02 0.02 0.00 0.00 0.00 0.00 0.00 0.00 0.00
0.00 0.00 0.00 0.00 0.00 0.00 0.00 0.00 0.00 0.00 0.00 0.00 0.00 0.00 0.00 0.00 0.00 0.00 0.00 0.00 0.00 0.00 0.00 0.00 0.00 0.00 0.00 0.00 0.00 0.00 0.00 0.00 0.01 0.02 0.01 0.07 0.04 0.03 0.02 0.01 0.01 0.01 0.00 0.00 0.00 0.00 0.00 0.00 0.00
0.00 0.00 0.00 0.00 0.00 0.00 0.00 0.00 0.00 0.00 0.00 0.00 0.00 0.00 0.00 0.00 0.00 0.00 0.00 0.00 0.00 0.00 0.00 0.00 0.00 0.00 0.00 0.00 0.00 0.00 0.00 0.00 0.01 0.02 0.01 0.06 0.04 0.03 0.01 0.02 0.02 0.01 0.00 0.00 0.00 0.00 0.00 0.00 0.00
0.00 0.00 0.00 0.00 0.00 0.00 0.00 0.00 0.00 0.00 0.00 0.00 0.00 0.00 0.00 0.00 0.00 0.00 0.00 0.00 0.00 0.00 0.00 0.00 0.00 0.00 0.00 0.00 0.00 0.00 0.00 0.00 0.00 0.01 0.01 0.02 0.02 0.03 0.01 0.02 0.03 0.01 0.00 0.00 0.00 0.00 0.00 0.00 0.00
0.00 0.00 0.00 0.00 0.00 0.00 0.00 0.00 0.00 0.00 0.00 0.00 0.00 0.00 0.00 0.00 0.00 0.00 0.00 0.00 0.00 0.00 0.00 0.00 0.00 0.00 0.00 0.00 0.00 0.00 0.00 0.00 0.00 0.00 0.00 0.00 0.00 0.02 0.00 0.01 0.01 0.00 0.00 0.00 0.00 0.00 0.00 0.00 0.00
0.00 0.00 0.00 0.00 0.00 0.00 0.00 0.00 0.00 0.00 0.00 0.00 0.00 0.00 0.00 0.00 0.00 0.00 0.00 0.00 0.00 0.00 0.00 0.00 0.00 0.00 0.00 0.00 0.00 0.00 0.00 0.00 0.00 0.00 0.00 0.01 0.00 0.01 0.00 0.00 0.00 0.00 0.00 0.00 0.00 0.00 0.00 0.00 0.00
0.00 0.00 0.00 0.00 0.00 0.00 0.00 0.00 0.00 0.00 0.00 0.00 0.00 0.00 0.00 0.00 0.00 0.00 0.00 0.00 0.00 0.00 0.00 0.00 0.00 0.00 0.00 0.00 0.00 0.00 0.00 0.00 0.00 0.00 0.00 0.01 0.01 0.00 0.00 0.00 0.00 0.00 0.00 0.00 0.00 0.00 0.00 0.00 0.00
0.00 0.00 0.00 0.00 0.00 0.00 0.00 0.00 0.00 0.00 0.00 0.00 0.00 0.00 0.00 0.00 0.00 0.00 0.00 0.00 0.00 0.00 0.00 0.00 0.00 0.00 0.00 0.00 0.00 0.00 0.00 0.00 0.00 0.00 0.00 0.00 0.00 0.01 0.00 0.00 0.00 0.00 0.00 0.00 0.00 0.00 0.00 0.00 0.00
0.00 0.00 0.00 0.00 0.00 0.00 0.00 0.00 0.00 0.00 0.00 0.00 0.00 0.00 0.00 0.00 0.00 0.00 0.00 0.00 0.00 0.00 0.00 0.00 0.00 0.00 0.00 0.00 0.00 0.00 0.00 0.00 0.00 0.00 0.00 0.00 0.00 0.00 0.00 0.00 0.00 0.00 0.00 0.00 0.00 0.00 0.00 0.00 0.00
0.00 0.00 0.00 0.00 0.00 0.00 0.00 0.00 0.00 0.00 0.00 0.00 0.00 0.00 0.00 0.00 0.00 0.00 0.00 0.00 0.00 0.00 0.00 0.00 0.00 0.00 0.00 0.00 0.00 0.00 0.00 0.00 0.00 0.00 0.00 0.00 0.00 0.00 0.00 0.00 0.00 0.00 0.00 0.00 0.00 0.00 0.00 0.00 0.00
0.00 0.00 0.00 0.00 0.00 0.00 0.00 0.00 0.00 0.00 0.00 0.00 0.00 0.00 0.00 0.00 0.00 0.00 0.00 0.00 0.00 0.00 0.00 0.00 0.00 0.00 0.00 0.00 0.00 0.00 0.00 0.00 0.00 0.00 0.00 0.00 0.00 0.00 0.00 0.00 0.00 0.00 0.00 0.00 0.00 0.00 0.00 0.00 0.00
0.00 0.00 0.00 0.00 0.00 0.00 0.00 0.00 0.00 0.00 0.00 0.00 0.00 0.00 0.00 0.00 0.00 0.00 0.00 0.00 0.00 0.00 0.00 0.00 0.00 0.00 0.00 0.00 0.00 0.00 0.00 0.00 0.00 0.00 0.00 0.00 0.00 0.00 0.00 0.00 0.00 0.00 0.00 0.00 0.00 0.01 0.01 0.00 0.00
0.00 0.00 0.00 0.00 0.00 0.00 0.00 0.00 0.00 0.00 0.00 0.00 0.00 0.00 0.00 0.00 0.00 0.00 0.00 0.00 0.00 0.00 0.00 0.00 0.00 0.00 0.00 0.00 0.00 0.00 0.00 0.00 0.00 0.00 0.00 0.00 0.00 0.00 0.00 0.00 0.00 0.00 0.00 0.00 0.00 0.00 0.00 0.01 0.00
0.00 0.00 0.00 0.00 0.01 0.00 0.00 0.00 0.01 0.01 0.00 0.00 0.00 0.00 0.00 0.00 0.00 0.00 0.00 0.00 0.00 0.00 0.00 0.00 0.00 0.00 0.00 0.00 0.00 0.00 0.00 0.00 0.00 0.00 0.00 0.00 0.00 0.00 0.00 0.00 0.00 0.00 0.00 0.00 0.00 0.00 0.00 0.00 0.00
0.00 0.00 0.00 0.00 0.00 0.01 0.01 0.01 0.03 0.01 0.00 0.00 0.00 0.00 0.00 0.00 0.00 0.00 0.00 0.00 0.00 0.00 0.00 0.00 0.00 0.00 0.00 0.00 0.00 0.00 0.00 0.00 0.00 0.00 0.00 0.00 0.00 0.00 0.00 0.00 0.00 0.00 0.00 0.00 0.00 0.00 0.00 0.00 0.00
0.00 0.00 0.00 0.00 0.00 0.01 0.01 0.01 0.02 0.01 0.00 0.00 0.00 0.00 0.00 0.00 0.00 0.00 0.00 0.00 0.00 0.00 0.00 0.00 0.02 0.02 0.00 0.00 0.00 0.00 0.00 0.00 0.00 0.00 0.00 0.00 0.00 0.00 0.00 0.00 0.00 0.00 0.00 0.00 0.00 0.00 0.00 0.00 0.00
MSLP
1010.38 1010.65 1010.91 1011.41 1013.37 1013.83 1013.49 1012.16 1010.65 1009.31 1008.25 1007.26 1006.87 1007.05 1006.98 1007.05 1007.76 1007.99 1007.20 1007.25 1007.70 1008.09 1008.52 1008.95 1009.14 1009.51 1009.79 1009.96 1009.96 1010.12 1010.34 1010.43 1010.64 1010.98 1011.32 1011.70 1012.14 1012.70 1013.26 1013.62 1013.80 1013.89 1014.18 1014.50 1014.87 1015.26 1015.60 1016.09 1016.52
1010.51 1010.77 1011.38 1012.43 1013.93 1014.15 1012.99 1011.26 1010.00 1008.65 1007.51 1006.77 1006.56 1006.56 1006.71 1006.91 1007.16 1007.19 1007.33 1007.46 1007.74 1008.24 1008.57 1008.96 1009.20 1009.40 1009.67 1009.87 1010.14 1010.25 1010.40 1010.72 1010.99 1011.31 1011.56 1011.79 1012.29 1012.66 1013.23 1013.70 1014.05 1014.30 1014.57 1014.92 1015.13 1015.40 1015.95 1016.46 1016.75
1010.30 1010.63 1012.02 1013.20 1013.98 1013.41 1012.13 1010.26 1008.97 1008.01 1007.15 1006.60 1006.52 1006.43 1006.50 1006.65 1006.82 1006.94 1006.74 1007.27 1007.72 1008.05 1008.34 1008.86 1009.09 1009.34 1009.59 1009.91 1010.16 1010.34 1010.67 1010.92 1011.19 1011.41 1011.63 1012.01 1012.55 1012.80 1013.17 1013.55 1014.22 1014.59 1014.91 1015.30 1015.50 1015.74 1016.39 1016.83 1017.10
1010.59 1011.45 1013.15 1013.46 1013.33 1012.31 1010.98 1009.14 1008.38 1007.60 1006.51 1006.27 1006.29 1006.55 1006.45 1006.32 1006.43 1006.41 1006.77 1007.35 1007.89 1008.17 1008.20 1008.74 1009.20 1009.47 1009.70 1009.96 1010.17 1010.54 1010.80 1011.22 1011.48 1011.68 1011.98 1012.27 1012.74 1013.31 1013.56 1013.77 1013.93 1014.56 1015.10 1015.89 1015.98 1016.11 1016.65 1017.19 1017.52
1011.20 1012.31 1013.42 1013.59 1012.60 1011.24 1009.99 1008.93 1008.42 1007.75 1007.14 1006.29 1006.25 1006.15 1006.42 1006.28 1006.29 1006.51 1006.93 1007.57 1008.01 1008.35 1008.30 1008.70 1009.15 1009.47 1009.74 1010.07 1010.34 1010.59 1010.95 1011.20 1011.56 1011.88 1012.28 1012.81 1013.62 1013.49 1014.11 1014.03 1014.51 1014.76 1014.89 1015.72 1016.39 1016.56 1017.08 1017.52 1017.92
1012.10 1012.86 1013.72 1013.29 1011.72 1010.44 1009.35 1008.30 1007.96 1007.42 1006.49 1005.87 1006.21 1006.16 1006.34 1006.35 1006.47 1006.88 1006.98 1007.66 1007.92 1008.17 1008.39 1008.74 1009.17 1009.49 1009.77 1010.05 1010.57 1010.95 1011.16 1011.26 1011.61 1011.97 1012.43 1013.11 1013.22 1014.14 1014.54 1014.47 1014.58 1015.46 1015.09 1015.96 1016.40 1016.90 1017.37 1017.74 1018.20
1012.06 1012.99 1012.88 1012.26 1010.98 1009.97 1008.61 1007.49 1007.43 1006.91 1006.10 1005.80 1005.11 1005.95 1006.38 1006.63 1006.56 1007.03 1007.25 1007.66 1008.18 1008.46 1008.41 1008.64 1009.08 1009.44 1009.78 1010.15 1010.68 1011.24 1011.35 1011.52 1011.79 1012.12 1012.35 1012.90 1013.39 1013.92 1014.29 1014.34 1014.58 1014.67 1015.31 1016.19 1016.55 1017.12 1017.72 1018.07 1018.50
1011.68 1012.38 1012.37 1011.66 1010.39 1009.17 1007.83 1006.99 1006.42 1006.49 1005.84 1005.36 1005.24 1005.81 1006.15 1005.93 1006.60 1007.15 1007.63 1007.95 1008.51 1008.71 1008.69 1008.83 1009.17 1009.46 1009.79 1010.18 1010.67 1011.22 1011.55 1011.90 1011.91 1012.29 1012.57 1012.93 1013.45 1013.97 1014.11 1014.05 1014.58 1014.82 1015.11 1016.04 1016.72 1017.29 1017.76 1018.31 1018.80
1011.19 1011.95 1011.65 1010.63 1009.88 1008.60 1007.66 1007.11 1006.58 1006.24 1005.99 1005.64 1005.42 1005.63 1005.95 1005.79 1006.69 1007.45 1008.01 1008.47 1008.81 1008.99 1008.93 1009.01 1009.30 1009.43 1009.84 1010.06 1010.58 1011.09 1011.47 1011.89 1012.02 1012.14 1012.58 1012.99 1013.29 1013.56 1013.83 1014.01 1014.17 1014.76 1015.46 1015.78 1016.72 1017.38 1017.82 1018.48 1019.12
1010.74 1010.98 1010.40 1009.45 1008.85 1008.16 1007.57 1007.31 1006.92 1006.60 1006.26 1005.95 1005.63 1005.70 1006.27 1006.45 1006.69 1007.32 1007.86 1008.22 1008.53 1008.78 1008.74 1008.85 1009.21 1009.43 1009.81 1010.07 1010.55 1011.10 1011.46 1011.81 1012.09 1012.30 1012.58 1013.02 1013.38 1013.60 1013.80 1014.01 1014.20 1014.73 1015.48 1015.92 1016.82 1017.47 1018.08 1018.52 1019.40
1009.87 1009.43 1009.22 1008.49 1007.99 1007.76 1007.52 1007.19 1006.87 1006.76 1006.35 1005.73 1005.88 1005.86 1006.54 1007.26 1007.00 1007.26 1007.46 1007.61 1007.81 1008.15 1008.48 1008.53 1008.99 1009.34 1009.75 1010.12 1010.48 1011.01 1011.47 1011.88 1012.15 1012.29 1012.51 1012.74 1013.09 1013.61 1013.86 1014.23 1014.51 1014.82 1015.47 1016.28 1017.06 1017.70 1018.36 1019.00 1019.35
1009.24 1008.75 1008.62 1007.76 1007.60 1007.56 1007.31 1006.88 1006.64 1006.49 1006.08 1005.31 1005.53 1005.77 1006.18 1006.82 1007.04 1006.65 1006.77 1007.01 1007.53 1008.04 1008.12 1008.10 1008.61 1009.14 1009.44 1009.84 1010.39 1010.69 1011.14 1011.55 1011.90 1012.19 1012.39 1012.66 1012.71 1013.42 1013.88 1014.17 1014.52 1015.21 1015.87 1016.36 1017.23 1017.83 1018.50 1019.34 1019.76
1008.51 1008.26 1007.89 1007.51 1007.28 1007.16 1007.02 1006.77 1006.37 1006.00 1005.73 1004.97 1005.26 1005.60 1005.61 1005.89 1006.22 1006.19 1006.42 1006.79 1007.18 1007.54 1007.93 1007.89 1008.19 1008.75 1009.12 1009.58 1010.11 1010.44 1010.93 1011.22 1011.48 1011.84 1012.16 1012.43 1012.88 1012.94 1013.67 1013.86 1014.59 1014.89 1016.17 1016.05 1017.20 1018.01 1018.54 1019.46 1019.96
1007.36 1007.49 1007.22 1007.11 1006.85 1006.80 1006.85 1005.94 1006.19 1005.53 1005.05 1005.17 1005.17 1005.19 1005.19 1005.35 1005.28 1005.98 1006.11 1006.23 1006.70 1006.82 1007.36 1007.77 1007.98 1008.43 1008.89 1009.25 1009.69 1010.00 1010.36 1010.81 1011.17 1011.47 1011.72 1012.17 1012.38 1012.55 1013.01 1013.70 1014.45 1014.91 1015.97 1016.10 1017.06 1017.83 1018.58 1019.53 1020.07
1006.97 1007.32 1007.10 1006.95 1006.76 1006.56 1006.23 1005.41 1005.23 1004.83 1004.60 1004.87 1004.85 1004.96 1004.99 1004.93 1005.30 1005.37 1004.82 1005.09 1005.50 1006.19 1006.57 1007.45 1007.80 1008.25 1008.61 1009.05 1009.52 1009.61 1009.93 1010.44 1010.92 1011.05 1011.33 1011.57 1011.91 1012.28 1012.48 1013.22 1014.25 1015.05 1015.82 1016.35 1017.43 1018.26 1018.84 1019.67 1020.24
1007.15 1007.11 1007.07 1006.33 1006.25 1005.98 1006.13 1004.01 1004.53 1004.19 1004.56 1004.92 1004.82 1004.76 1004.95 1004.58 1004.58 1004.50 1004.78 1005.15 1005.40 1006.09 1006.33 1006.98 1007.66 1008.12 1008.47 1009.00 1009.33 1009.44 1009.58 1009.94 1010.35 1010.68 1010.92 1011.09 1011.12 1011.38 1012.05 1013.05 1014.12 1014.85 1015.63 1016.40 1017.49 1018.27 1019.10 1019.74 1020.34
1007.74 1007.32 1006.96 1006.45 1005.80 1005.81 1005.71 1004.55 1004.40 1004.16 1004.44 1004.76 1004.76 1004.52 1004.61 1004.39 1004.28 1003.97 1003.98 1004.24 1004.77 1005.40 1006.09 1006.66 1007.48 1007.97 1008.40 1009.03 1009.44 1009.40 1009.56 1009.78 1010.00 1010.35 1010.69 1010.79 1010.35 1010.52 1011.51 1012.92 1014.12 1014.83 1015.59 1016.45 1017.37 1018.24 1018.76 1019.66 1020.39
1008.38 1007.82 1007.12 1006.63 1006.12 1005.97 1005.83 1004.84 1004.90 1004.49 1004.59 1004.62 1004.48 1004.24 1004.10 1004.05 1003.39 1003.12 1003.20 1003.59 1004.28 1004.95 1005.77 1006.38 1007.28 1007.88 1008.32 1009.04 1009.49 1009.50 1009.56 1009.63 1009.72 1010.07 1010.33 1010.63 1010.64 1011.28 1012.10 1013.21 1014.23 1015.03 1015.80 1016.62 1017.45 1018.24 1018.87 1019.36 1020.06
1007.89 1007.86 1007.37 1006.81 1006.25 1006.17 1005.86 1004.79 1004.97 1004.53 1004.25 1004.26 1004.02 1003.83 1003.52 1003.04 1002.48 1002.25 1002.39 1003.06 1003.96 1004.87 1005.39 1006.02 1006.86 1007.63 1008.08 1008.67 1009.32 1009.49 1009.46 1009.66 1009.80 1009.97 1010.01 1010.48 1011.02 1011.70 1012.44 1013.63 1014.62 1015.30 1015.69 1016.58 1017.55 1018.42 1018.87 1019.89 1020.16
1007.84 1007.93 1007.62 1006.94 1006.46 1006.50 1006.11 1003.94 1004.45 1004.06 1003.37 1003.12 1003.08 1002.95 1002.65 1002.27 1002.18 1002.00 1002.31 1002.86 1003.08 1003.95 1004.89 1005.86 1006.57 1007.19 1007.69 1008.11 1008.69 1009.01 1009.23 1009.60 1009.75 1010.00 1010.28 1010.20 1011.00 1011.83 1012.59 1013.52 1014.50 1015.11 1015.77 1016.88 1017.42 1018.10 1018.82 1019.69 1019.94
1007.62 1007.87 1007.83 1007.40 1007.09 1006.81 1006.42 1002.81 1003.11 1002.98 1002.30 1001.85 1001.95 1001.81 1001.60 1001.52 1001.59 1001.82 1002.07 1002.30 1002.74 1003.24 1004.02 1005.10 1005.99 1006.72 1007.31 1007.71 1008.46 1008.84 1009.22 1009.61 1009.88 1010.12 1010.15 1010.41 1010.86 1011.55 1012.23 1013.22 1014.16 1014.85 1015.79 1016.57 1017.20 1017.85 1018.35 1019.11 1019.94
1007.42 1007.40 1007.58 1007.82 1008.06 1008.26 1007.58 1004.20 1002.81 1002.01 1000.76 1001.51 1001.38 1001.03 1000.58 1000.49 1000.55 1001.01 1001.57 1002.04 1002.42 1002.41 1003.56 1004.63 1005.52 1006.22 1007.06 1007.39 1008.03 1008.47 1008.72 1009.30 1009.55 1009.99 1010.27 1010.57 1011.03 1011.44 1012.04 1012.86 1013.69 1014.79 1015.51 1016.20 1016.83 1017.60 1018.04 1018.55 1019.44
1007.20 1007.26 1007.83 1008.32 1008.63 1008.75 1008.35 1007.42 1003.62 1002.78 1002.06 1001.52 1000.96 1000.21 999.96 999.73 999.83 1000.08 1000.37 1000.59 1001.34 1002.86 1003.07 1004.00 1005.05 1005.86 1006.47 1007.02 1007.59 1008.16 1008.60 1009.09 1009.33 1009.95 1010.33 1010.66 1011.05 1011.40 1011.80 1012.51 1013.49 1014.52 1015.31 1016.06 1016.33 1017.03 1017.60 1018.14 1018.66
1007.18 1007.91 1008.57 1008.99 1009.23 1009.33 1008.31 1008.07 1003.07 1003.33 1002.49 1002.03 1001.01 999.95 999.39 999.04 999.09 999.00 999.19 1000.40 1001.15 1002.08 1003.46 1003.83 1004.43 1005.29 1005.82 1006.52 1007.22 1007.79 1008.25 1008.79 1009.28 1009.86 1010.22 1010.58 1010.95 1011.39 1011.96 1012.37 1013.26 1014.22 1015.07 1015.50 1015.90 1016.52 1017.07 1017.59 1018.09
1007.34 1008.06 1009.23 1010.01 1010.08 1009.76 1008.37 1007.89 1004.63 1003.24 1002.80 1002.83 1001.49 1000.00 999.20 998.60 998.52 998.46 998.89 999.63 1000.45 1001.38 1002.59 1003.64 1003.90 1004.72 1005.26 1006.02 1006.75 1007.44 1007.92 1008.29 1008.84 1009.55 1010.10 1010.39 1010.82 1011.38 1011.64 1012.25 1013.12 1013.89 1014.54 1015.18 1015.61 1016.22 1016.68 1017.02 1017.72
1007.79 1008.08 1009.27 1010.16 1010.40 1009.74 1008.56 1007.00 1004.71 1003.42 1003.29 1002.96 1001.99 1000.96 1000.05 999.01 998.41 998.03 998.05 998.64 999.34 1000.40 1001.60 1002.89 1003.50 1004.29 1004.82 1005.59 1006.30 1007.02 1007.65 1007.94 1008.49 1009.12 1009.86 1010.39 1010.70 1011.10 1011.55 1012.21 1012.69 1013.43 1014.13 1014.69 1015.37 1015.93 1016.32 1016.67 1017.01
1008.07 1008.67 1009.26 1010.05 1010.17 1009.99 1008.25 1005.93 1004.31 1003.57 1003.32 1002.98 1002.41 1001.50 1000.35 999.41 998.43 997.68 997.46 997.91 998.78 999.86 1000.54 1001.59 1002.64 1003.83 1004.40 1005.25 1005.98 1006.73 1007.36 1007.92 1008.31 1008.91 1009.63 1010.24 1010.63 1010.92 1011.48 1012.01 1012.58 1013.15 1013.72 1014.20 1014.65 1014.98 1015.54 1016.04 1016.66
1007.07 1008.43 1009.62 1010.46 1010.50 1009.53 1007.63 1006.37 1004.92 1004.43 1004.03 1003.66 1002.62 1001.91 1000.66 999.42 998.07 996.98 996.98 997.46 998.72 999.90 1000.93 1001.69 1002.68 1003.77 1004.33 1005.19 1005.86 1006.52 1007.28 1007.77 1008.25 1008.90 1009.56 1010.15 1010.55 1010.84 1011.23 1011.81 1012.30 1012.87 1013.39 1013.89 1014.27 1014.65 1015.06 1015.51 1015.89
1007.88 1008.57 1009.36 1009.94 1010.25 1009.69 1008.24 1006.40 1005.56 1005.06 1004.68 1004.23 1003.58 1002.89 1001.58 1000.44 998.89 997.23 997.09 998.06 999.26 1000.22 1001.23 1002.05 1002.97 1003.80 1004.43 1005.20 1005.86 1006.43 1007.02 1007.58 1008.07 1008.65 1009.28 1009.81 1010.30 1010.66 1011.08 1011.52 1012.09 1012.60 1012.97 1013.38 1013.82 1014.12 1014.49 1014.89 1015.31
1007.28 1008.36 1008.98 1009.64 1009.97 1009.41 1008.60 1006.52 1005.38 1005.25 1004.83 1004.45 1004.07 1003.33 1002.61 1001.57 999.95 998.53 998.60 999.43 1000.14 1000.75 1001.65 1002.46 1003.28 1004.01 1004.47 1005.04 1005.72 1006.31 1006.82 1007.46 1007.86 1008.20 1008.76 1009.29 1009.83 1010.32 1010.69 1011.11 1011.54 1011.95 1012.42 1012.87 1013.24 1013.62 1013.93 1014.29 1014.56
Thickness
5727 5726 5724 5716 5686 5675 5670 5681 5702 5712 5724 5736 5739 5731 5729 5734 5716 5696 5741 5742 5737 5731 5724 5719 5716 5711 5709 5708 5708 5707 5705 5704 5703 5701 5700 5697 5693 5690 5688 5686 5686 5688 5688 5689 5689 5688 5689 5688 5688
5722 5720 5713 5694 5668 5663 5668 5689 5701 5710 5729 5737 5739 5735 5732 5726 5733 5734 5734 5737 5733 5726 5719 5714 5711 5708 5705 5704 5702 5702 5700 5697 5695 5693 5691 5689 5687 5686 5683 5682 5680 5680 5680 5679 5681 5683 5683 5682 5683
5718 5715 5697 5679 5657 5663 5673 5696 5708 5718 5728 5733 5730 5736 5734 5730 5736 5734 5740 5735 5729 5725 5718 5711 5708 5704 5701 5699 5697 5696 5693 5691 5689 5688 5686 5683 5681 5680 5678 5678 5675 5673 5671 5670 5672 5676 5676 5676 5678
5707 5700 5682 5670 5667 5679 5690 5710 5712 5713 5729 5733 5728 5724 5736 5741 5737 5739 5738 5732 5725 5720 5716 5709 5704 5699 5697 5694 5692 5689 5687 5685 5683 5682 5680 5678 5674 5672 5672 5670 5672 5668 5666 5660 5665 5669 5671 5670 5671
5694 5681 5664 5663 5671 5688 5694 5701 5703 5707 5716 5726 5726 5724 5727 5737 5740 5737 5732 5727 5721 5716 5713 5707 5701 5696 5693 5689 5686 5684 5681 5679 5677 5675 5672 5668 5661 5666 5663 5664 5661 5662 5664 5658 5657 5662 5663 5662 5662
5674 5670 5651 5659 5678 5690 5698 5704 5702 5704 5712 5726 5720 5720 5725 5735 5734 5730 5729 5721 5720 5715 5709 5704 5698 5693 5689 5685 5679 5677 5675 5674 5671 5669 5665 5658 5654 5654 5652 5657 5655 5649 5655 5649 5653 5655 5655 5656 5656
5668 5656 5654 5664 5675 5687 5696 5705 5702 5703 5709 5714 5732 5713 5725 5727 5731 5726 5724 5717 5711 5709 5707 5701 5694 5690 5685 5681 5675 5670 5668 5668 5665 5662 5662 5657 5654 5650 5649 5652 5652 5652 5649 5644 5645 5650 5649 5649 5649
5665 5656 5653 5662 5680 5683 5702 5707 5711 5708 5709 5726 5730 5712 5716 5728 5726 5721 5716 5712 5706 5704 5701 5698 5691 5687 5682 5678 5671 5665 5661 5659 5659 5655 5653 5651 5650 5646 5644 5648 5647 5646 5647 5642 5640 5644 5645 5643 5644
5664 5645 5645 5669 5672 5687 5699 5692 5701 5709 5708 5714 5725 5722 5724 5729 5721 5713 5707 5702 5699 5698 5696 5693 5688 5685 5679 5675 5668 5662 5659 5654 5655 5653 5649 5645 5645 5642 5641 5643 5645 5643 5641 5642 5639 5640 5640 5639 5639
5656 5643 5654 5678 5678 5684 5690 5686 5689 5692 5692 5700 5715 5718 5715 5717 5716 5710 5703 5699 5697 5696 5696 5691 5686 5683 5677 5672 5666 5660 5655 5651 5647 5645 5643 5639 5636 5636 5635 5638 5641 5641 5640 5639 5636 5635 5635 5634 5633
5657 5656 5665 5674 5680 5682 5682 5679 5688 5684 5682 5697 5702 5708 5707 5704 5709 5707 5704 5702 5699 5697 5695 5692 5685 5680 5675 5670 5665 5659 5653 5647 5644 5641 5638 5634 5634 5631 5631 5631 5632 5637 5636 5633 5632 5631 5630 5628 5630
5648 5655 5663 5674 5675 5674 5675 5682 5677 5680 5688 5706 5704 5704 5704 5701 5703 5708 5707 5702 5696 5691 5693 5693 5685 5678 5674 5668 5662 5658 5652 5647 5641 5636 5632 5628 5630 5626 5625 5626 5629 5629 5629 5632 5630 5629 5625 5622 5624
5642 5652 5657 5664 5667 5668 5670 5670 5677 5678 5689 5707 5698 5698 5703 5704 5706 5709 5708 5701 5695 5691 5688 5691 5686 5677 5673 5667 5660 5657 5651 5646 5642 5635 5628 5623 5621 5625 5621 5624 5623 5626 5625 5631 5629 5624 5620 5618 5620
5652 5648 5655 5658 5659 5661 5660 5675 5671 5681 5693 5694 5693 5694 5696 5701 5705 5701 5702 5700 5694 5693 5687 5685 5684 5675 5670 5666 5660 5657 5651 5644 5638 5632 5626 5620 5619 5618 5620 5619 5621 5624 5621 5627 5625 5621 5617 5614 5614
5644 5636 5642 5645 5650 5650 5662 5658 5665 5685 5692 5685 5688 5687 5688 5696 5695 5701 5709 5706 5700 5693 5691 5682 5680 5673 5668 5663 5658 5656 5650 5643 5635 5629 5623 5619 5616 5614 5618 5620 5620 5619 5620 5622 5618 5615 5612 5609 5609
5629 5629 5621 5644 5644 5652 5653 5663 5675 5684 5682 5677 5679 5682 5683 5689 5694 5703 5703 5699 5695 5689 5688 5683 5677 5670 5665 5658 5655 5652 5648 5642 5635 5627 5621 5617 5618 5619 5619 5620 5619 5618 5618 5618 5615 5612 5609 5608 5606
5603 5603 5616 5628 5641 5645 5643 5655 5670 5674 5672 5671 5674 5678 5678 5683 5688 5701 5704 5702 5696 5690 5685 5682 5673 5667 5662 5655 5649 5648 5645 5640 5633 5627 5620 5615 5621 5625 5623 5619 5616 5615 5614 5615 5612 5608 5609 5604 5601
5586 5596 5605 5611 5628 5630 5627 5642 5645 5658 5659 5660 5666 5671 5675 5678 5690 5699 5704 5702 5696 5690 5683 5680 5669 5663 5658 5652 5646 5643 5641 5637 5632 5627 5622 5615 5618 5618 5618 5615 5612 5609 5611 5609 5608 5605 5604 5603 5600
5593 5590 5596 5604 5615 5616 5619 5636 5632 5645 5651 5652 5658 5667 5671 5680 5693 5699 5702 5700 5693 5686 5682 5678 5668 5660 5656 5652 5644 5640 5638 5634 5631 5628 5626 5619 5617 5616 5616 5610 5607 5606 5607 5604 5603 5599 5600 5594 5595
5579 5578 5580 5594 5607 5609 5609 5635 5633 5641 5654 5658 5659 5663 5672 5680 5688 5694 5695 5695 5695 5688 5681 5674 5667 5659 5654 5653 5646 5642 5638 5632 5629 5627 5624 5624 5619 5615 5613 5610 5606 5605 5604 5599 5600 5597 5595 5591 5592
5570 5569 5575 5583 5593 5598 5598 5640 5641 5647 5656 5664 5663 5668 5674 5678 5685 5687 5690 5692 5691 5688 5682 5674 5668 5658 5652 5651 5645 5640 5636 5631 5626 5625 5625 5623 5619 5615 5614 5609 5607 5605 5601 5598 5596 5595 5594 5591 5584
5563 5575 5577 5578 5575 5567 5586 5599 5636 5648 5660 5653 5660 5663 5675 5678 5685 5686 5686 5688 5687 5689 5680 5673 5666 5658 5651 5649 5644 5640 5639 5632 5628 5624 5623 5621 5616 5613 5612 5609 5606 5601 5599 5597 5595 5591 5590 5588 5582
5567 5573 5570 5568 5564 5564 5571 5567 5609 5630 5636 5642 5649 5661 5667 5676 5681 5686 5689 5694 5690 5678 5677 5672 5664 5656 5651 5648 5644 5639 5636 5631 5629 5623 5621 5619 5616 5612 5611 5608 5603 5598 5596 5593 5595 5590 5586 5583 5581
5566 5562 5557 5554 5556 5539 5566 5561 5612 5605 5616 5625 5640 5656 5664 5671 5675 5687 5692 5685 5683 5677 5667 5667 5664 5657 5652 5649 5643 5639 5636 5632 5627 5622 5620 5618 5617 5614 5610 5607 5603 5597 5594 5593 5592 5589 5585 5581 5580
5559 5553 5517 5517 5546 5534 5563 5555 5594 5604 5608 5609 5624 5642 5654 5665 5670 5678 5684 5684 5681 5676 5668 5662 5662 5657 5652 5648 5643 5639 5635 5634 5629 5624 5620 5618 5616 5613 5612 5609 5602 5597 5593 5589 5588 5585 5584 5582 5577
5548 5554 5533 5534 5542 5545 5556 5555 5576 5598 5594 5601 5613 5625 5634 5647 5661 5673 5683 5684 5684 5679 5670 5662 5659 5655 5651 5647 5643 5638 5633 5633 5629 5624 5619 5617 5615 5613 5611 5607 5602 5597 5592 5589 5587 5584 5583 5580 5580
5539 5540 5543 5531 5527 5513 5544 5565 5581 5588 5587 5591 5597 5609 5624 5636 5650 5668 5682 5685 5683 5678 5674 5668 5661 5654 5650 5645 5640 5636 5632 5629 5628 5623 5618 5615 5614 5613 5608 5604 5600 5596 5592 5591 5589 5588 5585 5583 5579
5552 5542 5522 5520 5527 5533 5544 5548 5560 5568 5574 5580 5589 5596 5614 5630 5650 5668 5679 5681 5675 5669 5663 5661 5655 5648 5644 5640 5637 5633 5628 5626 5624 5620 5615 5612 5610 5610 5607 5603 5599 5596 5593 5590 5589 5587 5584 5581 5580
5534 5529 5523 5525 5521 5525 5525 5543 5558 5560 5563 5566 5574 5584 5600 5613 5637 5660 5667 5666 5664 5660 5654 5650 5646 5642 5639 5635 5632 5629 5626 5623 5622 5618 5613 5609 5607 5606 5605 5603 5599 5596 5593 5590 5587 5585 5583 5581 5578
5538 5529 5527 5508 5515 5526 5525 5541 5557 5556 5560 5563 5565 5576 5585 5599 5620 5641 5647 5648 5648 5649 5644 5640 5637 5634 5633 5631 5629 5626 5624 5620 5619 5618 5615 5612 5607 5604 5603 5601 5599 5597 5594 5591 5588 5585 5583 5582 5580